Regional Weather Roundup
Issued by NWS Charleston, SC

Current Version | Previous Version | Graphics & Text | Print | Product List | Glossary On
Versions: 1 2 3 4 5 6 7 8 9 10 11 12 13 14 15 16 17 18 19 20 21 22 23 24 25 26 27 28 29 30 31 32 33 34 35 36 37 38 39 40 41 42 43 44 45 46 47 48 49 50
000
ASUS42 KCHS 221827
RWRCHS

REGIONAL WEATHER ROUNDUP
NATIONAL WEATHER SERVICE CHARLESTON SC
200 PM EDT SUN OCT 22 2017

NOTE: "FAIR" INDICATES FEW OR NO CLOUDS BELOW 12,000 FEET WITH NO
SIGNIFICANT WEATHER AND/OR OBSTRUCTIONS TO VISIBILITY.

NOT ALL STATIONS ARE QUALITY CONTROLLED. USE DATA WITH CAUTION...
ESPECIALLY DEWPOINT OBSERVATIONS.

SCZ027-030-031-034>040-042>050-221900-
...SOUTHEAST SOUTH CAROLINA...

CITY           SKY/WX    TMP DP  RH WIND       PRES   REMARKS
N CHARLESTON   CLOUDY    78  67  68 E14       30.23F
6HR MIN TEMP:  69; 6HR MAX TEMP:  82; 6HR PCP: TRACE;

WATERFRONT PRK NOT AVBL
JOHNS ISLAND   CLOUDY    73  72  94 E7        30.22F
PINOPOLIS        N/A     77  68  73 E9        30.18F
MONCKS CORNER  MOCLDY    77  64  65 E8        30.23F
SUMMERVILLE    CLOUDY    77  66  69 E9        30.24F
BEAUFORT MCAS  PTSUNNY   78  72  81 MISG      30.21F
6HR MIN TEMP:  69; 6HR MAX TEMP:  78; 6HR PCP:  0.07;

BEAUFORT ARPT  MOCLDY    81  72  74 E13G18    30.19F HAZE
HILTON HEAD IS PTSUNNY   77  73  88 E7        30.22F
WALTERBORO     CLOUDY    77  68  73 E14       30.23F
ALLENDALE        N/A     72  68  88 SE6         N/A  FOG

...SOUTHERN MIDLANDS AND PEE DEE...

CITY           SKY/WX    TMP DP  RH WIND       PRES   REMARKS
GEORGETOWN     FAIR      79  66  65 E13G18    30.26F
KINGSTREE      MOCLDY    81  63  54 E8        30.25F
ORANGEBURG     CLOUDY    78  63  59 E8        30.25F
6HR MIN TEMP:  63; 6HR MAX TEMP:  79;

BARNWELL         N/A     75  68  78 NE7       30.24S HAZE
AIKEN          MOCLDY    77  59  53 E8        30.26F
MANNING        MOCLDY    79  61  53 MISG      30.24F
COLUMBIA       PTSUNNY   82  63  52 SE12G20   30.24F
6HR MIN TEMP:  55; 6HR MAX TEMP:  83;

SUMTER         PTSUNNY   80  60  50 SE7       30.24F
6HR MIN TEMP:  58; 6HR MAX TEMP:  82;

FLORENCE       MOSUNNY   80  60  50 E9        30.27F
6HR MIN TEMP:  57; 6HR MAX TEMP:  82;

MYRTLE BEACH   CLOUDY    78  68  71 E13       30.29F
N MYRTLE BEACH PTSUNNY   79  65  62 E16       30.28F
6HR MIN TEMP:  63; 6HR MAX TEMP:  80;


$$

GAZ063-065-086>088-099>101-113>116-118-119-134>141-150-221900-
...SOUTHEAST GEORGIA...

CITY           SKY/WX    TMP DP  RH WIND       PRES   REMARKS
SAVANNAH ARPT  PTSUNNY   77  71  82 NE9       30.20F
6HR MIN TEMP:  68; 6HR MAX TEMP:  79; 6HR PCP:  0.05;

HUNTER AAF     MOSUNNY   81  72  74 E10       30.16F
6HR MIN TEMP:  69; 6HR MAX TEMP:  79; 6HR PCP:  0.09;

FORT STEWART   MOSUNNY   79  72  78 NE6       30.16F
6HR MIN TEMP:  68; 6HR MAX TEMP:  79; 6HR PCP:  0.01;

STATESBORO     DRIZZLE   76  66  71 NE7       30.21F
SYLVANIA       CLOUDY    74  73  94 E6        30.22F
CLAXTON        CLOUDY    78  72  82 N7        30.20F

...CSRA...CENTRAL AND FAR SOUTHEAST GEORGIA...

CITY           SKY/WX    TMP DP  RH WIND       PRES   REMARKS
THOMSON        CLOUDY    78  61  55 SE10      30.26F
AUGUSTA-BUSH   CLOUDY    83  62  49 E10       30.21F
6HR MIN TEMP:  57; 6HR MAX TEMP:  84;

AUGUSTA-DANIEL CLOUDY    81  61  50 E10       30.23F
SWAINSBORO     LGT RAIN  72  72 100 E10       30.22F
VIDALIA        CLOUDY    79  70  73 E12       30.19F
EASTMAN        MOCLDY    84  54  35 E12       30.19F
HAZLEHURST     FAIR      83  61  47 E8        30.16F
ALMA           MOSUNNY   83  68  60 E9G17     30.16F
6HR MIN TEMP:  68; 6HR MAX TEMP:  84;

WAYCROSS       PTSUNNY   85  67  54 E12       30.14F
JESUP          NOT AVBL
BAXLEY         PTSUNNY   81  70  69 E7        30.16F
BRUNSWICK      MOSUNNY   81  72  74 E10G16    30.16F
SAINT SIMONS   SUNNY     83  74  74 NE10      30.16F
6HR MIN TEMP:  75; 6HR MAX TEMP:  83;


$$

SCZ027-028-034-036>038-045-046-048>050-GAZ119-141-221900-
...LAKE AND SUPPLEMENTAL COASTAL OBSERVATIONS...

STATION/POSITION TIME  TEMP    WIND        PRES    WAVE   SWELL
                       AIR SEA DIR/SP/G            HT/PER HT/PER/DIR
                 (UTC) (F)     (DEG/KT/KT) (MB)    (FT/S) (FT/S/D)
WINYAH BAY       1730   76      80/ 11     1025.0F
LAKE MURRAY      1750   77      70/  6/ 12 1023.4F
ACE BASIN NERRS  1745   79      70/  4     1024.0F
FORT PULASKI     1800   75 73   80/  6/  7 1022.7
SAPELO ISLAND    NOT AVBL

$$

ANZ835-935-AMZ111-154-330-350-352-354-370-450-454-472-221900-
...C-MAN AND BUOY OBSERVATIONS...

STATION/POSITION TIME  TEMP    WIND        PRES    WAVE   SWELL
                       AIR SEA DIR/SP/G            HT/PER HT/PER/DIR
                 (UTC) (F)     (DEG/KT/KT) (MB)    (FT/S) (FT/S/D)
BUOY 41004       1810   79 79   90/ 17/ 23 1022.4
BUOY 41008       1750   78 78   90/  8/  8 1021.6F   4/ 8   3/110/ 8
FOLLY BEACH CMAN 1800   73     110/ 13/ 14 1024.1F
CAPERS NEARSHORE 1808   73 73   80/ 12/ 16 1023.3F
FRIPP NEARSHORE  1808   76      90/ 14/ 17   N/A


STATION/POSITION TIME  TEMP    WIND        PRES    WAVE   SWELL
                       AIR SEA DIR/SP/G            HT/PER HT/PER/DIR
                 (UTC) (F)     (DEG/KT/KT) (MB)    (FT/S) (FT/S/D)
5E ST. MARYS GA  1800      77                N/A     4/ 7
FRYING PAN BUOY  1810   77 76  100/ 12/ 14 1024.9
BUOY 41025       1750   76 81   90/  6/ 10 1026.6F   3/ 9   3/140/ 9
CAPE LOOKOUT NC  1800   77     150/  2/  2 1025.9F
BUOY 41002       1750   77 80   80/ 12/ 14 1024.9F   4/ 7   3/ 80/ 7
BUOY 41010       NOT AVBL
ST AUGUSTINE FL  1800   76 78   90/ 12/ 13 1020.7F


$$



USA.gov is the U.S. government's official web portal to all federal, state and local government web resources and services.